Terminal Aerodrome Forecast
Issued by NWS

Home | Current Version | Previous Version | Text Only | Print | Product List | Glossary On
Versions: 1 2 3 4 5 6 7 8 9 10 11 12 13 14 15 16 17 18 19 20 21 22 23 24 25 26 27
257
FTUS41 KOKX 281120
TAFHPN
TAF
KHPN 281120Z 2812/2912 12004KT 3/4SM BR OVC004
      TEMPO 2812/2815 2SM -RA BR OVC009
     FM281500 09004KT 1SM BR OVC004
     FM281800 10004KT 4SM BR OVC004
     FM290000 03003KT 1/4SM -RA FG OVC007
     FM290200 01003KT 1 1/2SM -DZ BR OVC003
     FM290400 36003KT 2SM BR OVC008
     FM290800 33006KT P6SM BKN025
      AMD NOT SKED=

USA.gov is the U.S. government's official web portal to all federal, state and local government web resources and services.